Total_Precipitation_Accumulation
0.65 0.63 0.60 0.62 0.67 0.75 0.82 0.94 1.09 1.31 1.39 1.44 1.55 1.76 1.91 2.03 2.12 2.16 2.01 1.87 1.83 1.96 2.11 2.01 2.09 2.09 1.96 1.94 2.00 2.05 2.01 1.82 1.66 1.71 1.61 1.35 1.17 1.25 1.22 1.24 1.30 1.31 1.39
0.50 0.45 0.41 0.44 0.48 0.49 0.56 0.68 0.85 0.97 1.12 1.31 1.59 1.81 2.06 2.09 2.15 2.21 2.20 2.12 2.05 2.17 2.19 2.27 2.36 2.38 2.38 2.32 2.20 2.32 2.48 2.20 1.95 2.08 2.37 1.98 1.63 1.28 1.05 1.16 1.26 1.33 1.57
0.34 0.28 0.28 0.35 0.41 0.41 0.45 0.55 0.70 0.86 1.11 1.36 1.73 2.02 2.30 2.39 2.45 2.41 2.41 2.39 2.37 2.39 2.41 2.46 2.51 2.52 2.38 2.38 2.49 2.62 2.97 2.78 2.39 2.18 2.49 2.34 2.04 1.73 1.27 1.15 1.25 1.35 1.51
0.33 0.31 0.29 0.29 0.33 0.38 0.46 0.59 0.81 1.05 1.34 1.67 2.03 2.29 2.59 2.75 2.59 2.58 2.59 2.52 2.40 2.37 2.45 2.44 2.42 2.38 2.33 2.40 2.48 2.53 2.96 3.20 2.90 2.53 2.11 1.89 1.88 2.01 1.74 1.30 1.25 1.36 1.38
0.39 0.37 0.38 0.39 0.43 0.50 0.60 0.79 1.07 1.39 1.71 1.99 2.16 2.41 2.54 2.56 2.51 2.45 2.45 2.35 2.31 2.27 2.28 2.26 2.34 2.34 2.36 2.43 2.62 2.75 3.01 3.07 3.09 2.89 2.63 2.39 2.08 1.77 1.87 1.83 1.55 1.48 1.37
0.42 0.42 0.46 0.54 0.62 0.70 0.87 1.07 1.25 1.55 1.75 1.93 2.08 2.26 2.39 2.40 2.37 2.35 2.40 2.38 2.33 2.22 2.15 2.11 2.17 2.28 2.40 2.45 2.55 2.74 3.00 3.13 3.24 3.14 2.83 2.72 2.56 2.29 2.19 1.96 1.81 1.77 1.52
0.48 0.49 0.62 0.78 0.86 0.91 1.04 1.22 1.30 1.51 1.63 1.70 1.84 2.00 2.03 2.04 2.06 2.05 2.07 1.98 1.92 1.90 1.96 2.04 2.12 2.25 2.33 2.39 2.51 2.65 2.72 2.86 3.13 3.15 2.96 2.74 2.55 2.55 2.42 2.32 2.02 1.82 1.56
0.66 0.76 0.91 1.00 1.08 1.12 1.12 1.19 1.34 1.38 1.40 1.47 1.49 1.58 1.64 1.69 1.74 1.72 1.73 1.78 1.80 1.81 1.75 1.79 1.87 2.09 2.27 2.36 2.45 2.46 2.46 2.53 2.74 2.76 2.82 2.78 2.52 2.48 2.40 2.42 2.57 2.26 1.96
0.91 1.17 1.37 1.47 1.54 1.48 1.32 1.20 1.24 1.26 1.24 1.33 1.38 1.42 1.48 1.51 1.53 1.55 1.47 1.59 1.61 1.60 1.54 1.58 1.61 1.73 1.94 2.18 2.34 2.31 2.25 2.23 2.39 2.45 2.54 2.68 2.71 2.62 2.54 2.54 2.69 2.70 2.41
1.36 1.66 1.93 2.10 2.08 1.86 1.61 1.38 1.23 1.16 1.14 1.19 1.28 1.37 1.40 1.40 1.37 1.40 1.32 1.35 1.44 1.43 1.36 1.37 1.49 1.64 1.74 1.91 2.12 2.20 2.16 2.18 2.28 2.39 2.50 2.64 2.78 2.80 2.59 2.57 2.61 2.53 2.52
1.83 2.02 2.19 2.31 2.12 1.93 1.66 1.39 1.22 1.21 1.24 1.29 1.34 1.35 1.30 1.29 1.27 1.22 1.16 1.20 1.28 1.27 1.25 1.39 1.48 1.56 1.65 1.82 2.06 2.20 2.22 2.17 2.19 2.19 2.27 2.47 2.60 2.82 2.76 2.65 2.60 2.52 2.44
1.57 1.70 1.80 1.81 1.85 1.81 1.63 1.44 1.31 1.29 1.34 1.41 1.46 1.40 1.32 1.27 1.24 1.20 1.11 1.09 1.05 1.03 1.14 1.27 1.30 1.35 1.37 1.57 1.86 2.06 2.11 2.11 2.01 1.97 2.09 2.33 2.52 2.73 2.84 2.79 2.67 2.62 2.50
1.35 1.36 1.42 1.52 1.62 1.63 1.54 1.52 1.48 1.49 1.51 1.48 1.40 1.34 1.27 1.17 1.12 1.04 0.99 1.02 1.01 1.08 1.17 1.22 1.26 1.29 1.34 1.38 1.51 1.70 1.85 1.85 1.81 1.82 1.84 1.86 2.07 2.38 2.59 2.64 2.71 2.73 2.69
1.07 1.08 1.18 1.30 1.38 1.41 1.43 1.41 1.39 1.43 1.55 1.64 1.54 1.43 1.34 1.23 1.17 1.07 0.97 0.95 0.98 1.07 1.15 1.17 1.23 1.31 1.36 1.36 1.39 1.42 1.49 1.54 1.62 1.67 1.67 1.71 1.77 2.01 2.24 2.33 2.50 2.74 2.79
0.77 0.81 0.87 0.89 0.88 0.88 0.96 1.03 1.12 1.26 1.43 1.60 1.61 1.49 1.34 1.23 1.16 1.08 0.99 0.95 0.96 0.97 1.06 1.11 1.11 1.16 1.25 1.36 1.42 1.31 1.28 1.37 1.46 1.45 1.39 1.43 1.61 1.83 1.98 1.96 2.23 2.57 2.80
0.54 0.53 0.53 0.52 0.51 0.49 0.51 0.55 0.67 0.86 1.11 1.39 1.42 1.27 1.13 1.00 0.95 0.97 0.96 0.95 0.92 0.96 0.99 0.94 0.96 1.04 1.07 1.35 1.38 1.22 1.15 1.20 1.30 1.39 1.37 1.26 1.28 1.41 1.54 1.61 1.75 2.01 2.24
0.40 0.41 0.41 0.39 0.37 0.37 0.37 0.42 0.51 0.66 0.85 0.98 1.00 0.95 0.90 0.89 0.94 0.99 0.95 0.93 0.93 0.94 0.96 0.92 0.91 0.93 1.07 1.21 1.11 1.15 1.09 1.12 1.19 1.28 1.37 1.28 1.18 1.34 1.37 1.50 1.60 1.56 1.64
0.30 0.29 0.31 0.32 0.37 0.37 0.41 0.46 0.53 0.59 0.65 0.69 0.73 0.72 0.73 0.78 0.86 0.90 0.90 0.97 0.99 0.92 0.92 0.97 0.97 0.96 1.03 1.09 1.01 1.11 1.06 1.03 1.09 1.21 1.32 1.37 1.30 1.36 1.50 1.46 1.47 1.41 1.41
0.23 0.20 0.21 0.22 0.26 0.27 0.29 0.30 0.32 0.35 0.37 0.39 0.42 0.47 0.52 0.55 0.60 0.64 0.73 0.88 0.96 0.97 0.98 1.02 1.01 0.93 0.94 1.05 1.01 1.07 1.03 1.03 1.05 1.07 1.16 1.26 1.21 1.47 1.63 1.50 1.61 1.61 1.51
0.22 0.22 0.19 0.19 0.21 0.23 0.26 0.24 0.24 0.26 0.27 0.27 0.30 0.34 0.38 0.41 0.44 0.52 0.59 0.69 0.75 0.84 0.94 0.94 0.94 0.94 0.93 1.18 1.13 1.12 1.02 1.04 1.12 1.14 1.11 1.30 1.33 1.52 1.54 1.38 1.58 1.63 1.59
0.20 0.22 0.22 0.21 0.21 0.25 0.27 0.27 0.27 0.28 0.32 0.33 0.34 0.36 0.37 0.39 0.44 0.49 0.55 0.60 0.67 0.78 0.85 0.87 0.88 0.94 1.05 1.26 1.29 1.32 1.17 1.15 1.25 1.22 1.11 1.07 1.29 1.22 1.33 1.34 1.30 1.58 1.65
0.18 0.20 0.22 0.23 0.24 0.25 0.26 0.27 0.27 0.30 0.34 0.36 0.38 0.39 0.40 0.43 0.46 0.51 0.57 0.61 0.67 0.71 0.76 0.80 0.82 0.85 0.93 1.05 1.15 1.20 1.20 1.22 1.22 1.24 1.12 1.13 1.30 1.14 1.13 1.11 1.21 1.47 1.59
0.18 0.18 0.21 0.20 0.21 0.22 0.23 0.25 0.29 0.32 0.35 0.38 0.39 0.41 0.42 0.44 0.44 0.49 0.56 0.61 0.64 0.67 0.71 0.75 0.81 0.84 0.87 0.94 1.01 1.00 1.05 1.12 1.12 1.10 1.20 1.24 1.23 1.12 1.01 1.01 1.12 1.21 1.29
0.18 0.17 0.20 0.22 0.22 0.23 0.25 0.29 0.31 0.30 0.31 0.38 0.40 0.41 0.42 0.43 0.46 0.48 0.54 0.58 0.62 0.65 0.70 0.77 0.80 0.82 0.85 0.88 0.90 0.97 1.04 1.01 1.00 1.01 1.03 1.05 1.07 1.05 0.97 0.98 1.04 1.12 1.24
0.20 0.23 0.26 0.27 0.28 0.28 0.31 0.36 0.38 0.34 0.32 0.34 0.37 0.38 0.39 0.43 0.46 0.48 0.50 0.53 0.58 0.70 0.79 0.82 0.85 0.81 0.77 0.78 0.85 0.95 1.04 1.13 1.20 1.26 1.16 1.13 1.12 1.10 1.03 1.01 1.01 1.09 1.20
0.26 0.28 0.30 0.32 0.32 0.31 0.33 0.36 0.40 0.41 0.39 0.39 0.37 0.36 0.38 0.42 0.45 0.47 0.47 0.51 0.54 0.65 0.72 0.73 0.73 0.72 0.75 0.80 0.79 0.82 0.93 1.07 1.25 1.37 1.32 1.36 1.36 1.32 1.26 1.20 1.14 1.09 1.11